COSMOS 2251 DEB, 35663

Orbit data source: Space-Track

COSMOS 2251 DEB, 35663 is space debris in LEO originally from a launch on Wed, 16 Jun 1993 UTC launched from the Plesetsk Missile And Space Complex (PKMTR). The debris from Iridium 33, an American commercial communications satellite, has been tracked extensively since its accidental collision with the defunct Russian satellite Cosmos 2251 in 2009. This event, occurring at high speed in low Earth orbit (LEO), generated thousands of pieces of space debris, significantly increasing the risk of further collisions. The Iridium 33 debris cloud has impacted space traffic management and orbital debris mitigation strategies, making it a subject of ongoing study in space situational awareness.

Loading next visibility...
Identifier
35663, 1993-036APE
Orbit
LEO
Country
Flag of CISCIS
Related business
Manufacturer
Unknown
Mission
Spacecraft
Bus & Motor
Unknown
Mass
Unknown
Launch date (UTC)
1993-06-16 (33 years ago)
Launch vehicle
Unknown
Launch site
Plesetsk Missile And Space Complex (PKMTR)
Object type
Payload
Rocket body
Debris
Shape & HBR
Unknown shape, 0.1 m
Radar Cross Section
Small (<0.1 m²)

Expand to show TLE details & history
Last TLE update: 3 days ago

TLE from 3 days ago
0 COSMOS 2251 DEB
1 35663U 93036APE 25347.10580486  .00013628  00000-0  25043-2 0  9993
2 35663  74.0174 123.9590 0006346 198.7091 161.3846 14.65684168733877
Epoch: 2025-12-13T02:32Z
TLE epoch observation values (Epoch: 2025-12-13T02:32:21.539Z)
Latitude
0.00002°
Longitude
3.83141°
Altitude
681.768 km
Speed
7.514 km/s
True Right ascension
08h 15m 50s
True Declination
0° 00' 00"
Sunlit
Object was in full shadow at epoch
Visualization orbit readout
Latitude
Unknown
Longitude
Unknown
Altitude
Unknown
Speed
Unknown
Apparent Right ascension
Unknown
Apparent Declination
Unknown
Sunlit
N/A
Visualization observer readout
Local Sidereal Time
17:45:23
Azimuth
Unknown
Elevation
Unknown
Doppler factor
Unknown
Orbital elements
Apogee altitude
676.947 km
Perigee altitude
667.998 km
Semi-major axis
7,050.61 km
Eccentricity
0.00063
Inclination
74.0174°
RAAN
123.959°
Arg. of periapsis
198.7091°
True anomaly
161.4078°
Mean anomaly
161.3846°
Eccentric anomaly
161.3962°
Mean motion
3.66609 °/min
Orbital period
98.2 mins
BSTAR
0.0025043

Documentation

Showing up to 5 results
|